Reidsville, NC

9:07 PM EDT on March 27, 2017 (GMT -0400)
Reidsville

Weather History for KSIF - December, 2013

Change the Weather History Date:

Tuesday, December 31, 2013

  Actual Average (KGSO) Record (KGSO)
Temperature  
Mean Temperature 38 °F -  
Max Temperature 49 °F 47 °F 71 °F (1923)
Min Temperature 27 °F 30 °F 1 °F (1935)
Degree Days  
Heating Degree Days 27    
Moisture  
Dew Point 26 °F    
Average Humidity 67    
Maximum Humidity 99    
Minimum Humidity 33    
Precipitation  
Precipitation 0.00 in - - ()
Sea Level Pressure  
Sea Level Pressure 30.24 in    
Wind  
Wind Speed 2 mph (West)    
Max Wind Speed 18 mph    
Max Gust Speed 25 mph    
Visibility 10 miles    
Events Rain    
Averages and records for this station are not official NWS values.
T = Trace of Precipitation, MM = Missing Value Source: NWS Daily Summary

Daily Weather History Graph

Daily Weather History Graph

Search for Another Location

Airport or City:

Trip Planner

Search our weather history database for the weather conditions in past years. The results will help you decide how hot, cold, wet, or windy it might be!

Date:

Astronomy

Dec. 31, 2013 Rise Set
Actual Time 7:31 AM EST 5:14 PM EST
Civil Twilight 7:02 AM EST 5:42 PM EST
Nautical Twilight 6:30 AM EST 6:15 PM EST
Astronomical Twilight 5:58 AM EST 6:46 PM EST
Moon 6:23 AM EST (12/31) 4:47 PM EST (12/31)
Length of Visible Light 10h 40m
Length of Day
9h 43m
Waning Crescent, 1% of the Moon is Illuminated
Dec 31
Waning Crescent
Jan 1
New
Jan 7
First Quarter
Jan 15
Full
Jan 24
Last Quarter

Hourly Weather History & Observations

Time (EST) Temp. Windchill Dew Point Humidity Pressure Visibility Wind Dir Wind Speed Gust Speed Precip Events Conditions
12:15 AM 39.2 °F - 32.0 °F 75% 30.14 in 10.0 mi Calm Calm - N/A   Overcast
12:35 AM 39.2 °F - 32.0 °F 75% 30.14 in 10.0 mi Calm Calm - N/A   Overcast
12:55 AM 38.7 °F - 32.0 °F 77% 30.14 in 10.0 mi Calm Calm - N/A Rain Light Rain
1:15 AM 37.9 °F - 33.3 °F 83% 30.14 in 10.0 mi Calm Calm - N/A   Drizzle
1:35 AM 37.9 °F - 33.4 °F 84% 30.14 in 10.0 mi Calm Calm - N/A   Overcast
1:55 AM 37.0 °F - 34.3 °F 90% 30.14 in 10.0 mi Calm Calm - N/A   Overcast
2:15 AM 37.0 °F - 34.7 °F 91% 30.13 in 10.0 mi Calm Calm - N/A   Overcast
2:35 AM 37.0 °F - 34.7 °F 91% 30.14 in 10.0 mi Calm Calm - N/A   Overcast
2:55 AM 36.5 °F - 34.9 °F 94% 30.14 in 10.0 mi Calm Calm - N/A   Overcast
3:15 AM 36.5 °F - 34.7 °F 93% 30.15 in 10.0 mi Calm Calm - N/A Rain Light Rain
3:35 AM 37.2 °F - 34.2 °F 89% 30.14 in 10.0 mi Calm Calm - N/A   Overcast
3:55 AM 36.5 °F - 34.7 °F 93% 30.15 in 10.0 mi Calm Calm - N/A   Overcast
4:15 AM 36.3 °F - 34.7 °F 94% 30.15 in 10.0 mi Calm Calm - N/A   Overcast
4:35 AM 36.0 °F - 34.3 °F 94% 30.15 in 10.0 mi Calm Calm - N/A   Overcast
4:55 AM 34.5 °F - 33.3 °F 95% 30.15 in 10.0 mi Calm Calm - N/A   Mostly Cloudy
5:15 AM 32.0 °F - 31.1 °F 96% 30.16 in 7.0 mi Calm Calm - N/A   Clear
5:35 AM 31.6 °F - 30.7 °F 96% 30.17 in 10.0 mi Calm Calm - N/A   Clear
5:55 AM 30.9 °F - 29.8 °F 96% 30.18 in 7.0 mi Calm Calm - N/A   Clear
6:15 AM 30.0 °F - 29.1 °F 96% 30.19 in 10.0 mi Calm Calm - N/A   Clear
6:35 AM 29.3 °F - 28.4 °F 96% 30.19 in 7.0 mi Calm Calm - N/A   Clear
6:55 AM 28.6 °F - 27.9 °F 97% 30.19 in 7.0 mi Calm Calm - N/A   Clear
7:15 AM 29.1 °F - 28.2 °F 96% 30.20 in 10.0 mi Calm Calm - N/A   Clear
7:35 AM 28.0 °F - 27.3 °F 97% 30.21 in 7.0 mi Calm Calm - N/A   Clear
7:55 AM 27.3 °F - 26.6 °F 97% 30.22 in 5.0 mi Calm Calm - N/A   Clear
8:15 AM 27.5 °F - 26.8 °F 97% 30.21 in 7.0 mi Calm Calm - N/A   Clear
8:35 AM 29.5 °F - 28.9 °F 98% 30.23 in 7.0 mi Calm Calm - N/A   Clear
8:55 AM 32.2 °F 28.9 °F 32.0 °F 99% 30.24 in 10.0 mi SSW 3.5 mph - N/A   Clear
9:15 AM 35.2 °F 32.4 °F 32.0 °F 88% 30.24 in 10.0 mi SSW 3.5 mph - N/A   Clear
9:35 AM 37.6 °F 34.0 °F 32.0 °F 80% 30.25 in 10.0 mi SW 4.6 mph - N/A   Clear
9:55 AM 39.4 °F 36.1 °F 31.8 °F 74% 30.26 in 10.0 mi SSW 4.6 mph - N/A   Clear
10:15 AM 41.5 °F 37.8 °F 29.8 °F 63% 30.27 in 10.0 mi WSW 5.8 mph - N/A   Clear
10:35 AM 43.7 °F 41.1 °F 24.1 °F 46% 30.27 in 10.0 mi West 4.6 mph - N/A   Clear
10:55 AM 44.6 °F 39.2 °F 21.7 °F 40% 30.28 in 10.0 mi West 10.4 mph - N/A   Clear
11:15 AM 45.3 °F 40.6 °F 24.4 °F 44% 30.27 in 10.0 mi SW 9.2 mph - N/A   Clear
11:35 AM 45.1 °F 43.7 °F 22.1 °F 40% 30.26 in 10.0 mi WSW 3.5 mph - N/A   Clear
11:55 AM 46.2 °F 42.7 °F 24.8 °F 43% 30.26 in 10.0 mi SW 6.9 mph - N/A   Clear
12:15 PM 46.9 °F - 21.4 °F 36% 30.25 in 10.0 mi West 8.1 mph - N/A   Clear
12:35 PM 47.3 °F - 20.5 °F 35% 30.24 in 10.0 mi West 5.8 mph - N/A   Clear
12:55 PM 48.4 °F - 20.5 °F 33% 30.25 in 10.0 mi West 11.5 mph 16.1 mph N/A   Clear
1:15 PM 48.0 °F - 20.3 °F 33% 30.24 in 10.0 mi West 5.8 mph 16.1 mph N/A   Clear
1:35 PM 48.7 °F - 20.3 °F 33% 30.23 in 10.0 mi West 8.1 mph 19.6 mph N/A   Clear
1:55 PM 49.1 °F - 20.7 °F 33% 30.24 in 10.0 mi West 11.5 mph 24.2 mph N/A   Clear
2:15 PM 48.7 °F - 21.4 °F 34% 30.23 in 10.0 mi West 12.7 mph 25.3 mph N/A   Clear
2:35 PM 49.5 °F - 22.1 °F 34% 30.24 in 10.0 mi West 18.4 mph 21.9 mph N/A   Clear
2:55 PM 49.3 °F - 21.6 °F 34% 30.23 in 10.0 mi West 11.5 mph 20.7 mph N/A   Clear
3:15 PM 48.7 °F - 21.4 °F 34% 30.23 in 10.0 mi West 9.2 mph 18.4 mph N/A   Clear
3:35 PM 48.2 °F - 21.7 °F 35% 30.24 in 10.0 mi West 8.1 mph - N/A   Clear
3:55 PM 48.2 °F - 21.0 °F 34% 30.25 in 10.0 mi West 5.8 mph - N/A   Clear
4:20 PM 47.3 °F - 21.0 °F 35% 30.26 in 10.0 mi West 6.9 mph - N/A   Clear
4:35 PM 46.8 °F - 20.8 °F 36% 30.26 in 10.0 mi West 8.1 mph - N/A   Clear
4:55 PM 45.5 °F 43.2 °F 20.7 °F 37% 30.27 in 10.0 mi West 4.6 mph - N/A   Clear
5:15 PM 43.0 °F 41.3 °F 21.7 °F 43% 30.27 in 10.0 mi WSW 3.5 mph - N/A   Clear
5:35 PM 41.4 °F 38.4 °F 22.8 °F 48% 30.26 in 10.0 mi WSW 4.6 mph - N/A   Clear
5:55 PM 40.1 °F 36.9 °F 22.8 °F 50% 30.28 in 10.0 mi West 4.6 mph - N/A   Clear
6:15 PM 41.9 °F 39.0 °F 21.2 °F 44% 30.29 in 10.0 mi West 4.6 mph - N/A   Clear
6:35 PM 41.4 °F 38.4 °F 21.0 °F 44% 30.30 in 10.0 mi West 4.6 mph - N/A   Clear
6:55 PM 40.6 °F 36.7 °F 21.6 °F 47% 30.31 in 10.0 mi West 5.8 mph - N/A   Clear
7:15 PM 37.8 °F - 21.7 °F 53% 30.31 in 10.0 mi Calm Calm - N/A   Clear
7:35 PM 35.8 °F - 22.1 °F 58% 30.32 in 10.0 mi Calm Calm - N/A   Clear
7:55 PM 32.0 °F - 22.5 °F 68% 30.32 in 10.0 mi Calm Calm - N/A   Clear
8:15 PM 30.0 °F - 22.3 °F 73% 30.33 in 10.0 mi Calm Calm - N/A   Clear
8:35 PM 29.5 °F - 22.8 °F 76% 30.33 in 10.0 mi Calm Calm - N/A   Clear
8:55 PM 28.4 °F - 23.4 °F 81% 30.34 in 10.0 mi Calm Calm - N/A   Clear
9:15 PM 28.4 °F - 23.7 °F 83% 30.35 in 10.0 mi Calm Calm - N/A   Clear
9:35 PM 28.0 °F 24.2 °F 23.7 °F 84% 30.36 in 10.0 mi WSW 3.5 mph - N/A   Clear
9:55 PM 31.3 °F 25.6 °F 23.0 °F 71% 30.36 in 10.0 mi WNW 5.8 mph - N/A   Clear
10:15 PM 33.8 °F 29.6 °F 23.0 °F 65% 30.36 in 10.0 mi West 4.6 mph - N/A   Clear
10:35 PM 34.2 °F - 22.3 °F 62% 30.35 in 10.0 mi Calm Calm - N/A   Clear
10:55 PM 34.7 °F 31.8 °F 22.5 °F 61% 30.36 in 10.0 mi West 3.5 mph - N/A   Clear
11:15 PM 30.0 °F - 22.1 °F 72% 30.36 in 10.0 mi Calm Calm - N/A   Clear
11:35 PM 29.1 °F - 23.5 °F 80% 30.36 in 10.0 mi Calm Calm - N/A   Clear
11:55 PM 28.6 °F - 23.9 °F 83% 30.36 in 10.0 mi Calm Calm - N/A   Clear